[[{"header":{"parameterUnit":"m.s-1","parameterCategory":1,"la1":30.2991,"la2":30.254,"lo1":-89.0895,"lo2":-89.0444,"dy":0.0017,"dx":0.0017,"nx":28,"ny":28,"refTime":"2024-04-29T21:00:00:Z","depth":0,"parameterNumber":2,"parameterNumberName":"U-component_of_WINDS"},"data":[0,0,0,0,0,0,0,0,0,0,0,0,0,0,0,0,0,0,0,0,0,0,0,0,0,0,0,0,0,0,0,0,0,0,0,0,0,0,0,0,0,0,0,0,0,0,0,0,0,0,0,0,0,0,0,0,0,0,-0.9273,-0.9273,0,-0.9258,-0.9258,-0.9258,-0.9254,-0.9254,-0.9255,-0.9255,-0.9238,-0.9237,-0.9237,0,0,0,0,0,0,0,0,0,0,0,0,0,-0.9298,-0.9298,-0.9273,-0.9273,-0.9273,-0.9258,-0.9258,-0.9258,-0.9254,-0.9254,-0.9255,-0.9255,-0.9238,-0.9237,-0.9236,0,0,0,0,0,0,0,0,0,0,0,0,0,-0.9286,-0.9298,-0.9273,-0.9269,-0.9269,-0.9258,-0.9258,-0.9258,-0.9254,-0.9254,-0.9255,-0.9255,-0.9238,-0.9237,-0.9236,-0.9228,0,0,-0.9234,-0.9233,0,0,0,0,0,0,0,0,-0.9286,-0.9285,-0.927,-0.927,-0.9269,-0.9258,-0.9261,-0.9248,-0.9254,-0.926,-0.9255,-0.9255,-0.9244,-0.9243,-0.924,-0.9227,-0.9227,-0.9234,-0.9233,-0.9233,-0.9233,0,0,0,0,0,0,0,-0.9287,-0.9285,-0.9267,-0.927,-0.9269,-0.9268,-0.9267,-0.9258,-0.9251,-0.9259,-0.9259,-0.9257,-0.9244,-0.9241,-0.9239,-0.9226,-0.9234,-0.9233,-0.9233,-0.9232,-0.9206,-0.9206,0,0,0,0,0,0,-0.9289,-0.9286,-0.9268,-0.9267,-0.9278,-0.9268,-0.9266,-0.9262,-0.9251,-0.925,-0.9257,-0.9257,-0.9242,-0.924,-0.9239,-0.9228,-0.9233,-0.9232,-0.9232,-0.9207,-0.9206,-0.9206,0,0,0,0,0,0,-0.9289,-0.9287,-0.9268,-0.9276,-0.9274,-0.9267,-0.9262,-0.9261,-0.9258,-0.925,-0.9248,-0.9255,-0.9242,-0.924,-0.9231,-0.9228,-0.9232,-0.9231,-0.9207,-0.9206,-0.9206,-0.9208,0,0,0,0,0,0,-0.929,-0.9288,-0.9285,-0.9276,-0.9273,-0.9261,-0.9262,-0.9261,-0.9257,-0.9256,-0.9247,-0.9246,-0.9242,-0.9232,-0.923,-0.9227,-0.923,-0.9207,-0.9207,-0.9206,-0.9208,-0.9207,-0.9207,0,0,0,0,0,-0.9291,-0.9285,-0.9284,-0.9282,-0.927,-0.9261,-0.9259,-0.9255,-0.9256,-0.9253,-0.9248,-0.9246,-0.9228,-0.9231,-0.9229,-0.9225,-0.9207,-0.9207,-0.9206,-0.9208,-0.9207,-0.9207,0,0,0,0,0,0,-0.9293,-0.9284,-0.9283,-0.9274,-0.9269,-0.926,-0.9256,-0.9255,-0.9248,-0.9248,-0.9243,-0.9241,-0.9232,-0.9228,-0.9231,-0.9217,-0.9218,-0.9217,-0.922,-0.9219,-0.9219,-0.922,-0.923,0,0,0,0,0,-0.9292,-0.9286,-0.9279,-0.9272,-0.9269,-0.9263,-0.9259,-0.9257,-0.925,-0.9247,-0.9242,-0.9235,-0.9228,-0.9223,-0.9216,-0.9207,-0.9205,-0.9203,-0.9203,-0.9203,-0.9202,-0.9197,-0.9196,-0.9205,-0.9205,-0.9205,0,0,-0.9291,-0.9285,-0.9282,-0.9272,-0.9267,-0.9261,-0.9261,-0.9254,-0.925,-0.9246,-0.9238,-0.9233,-0.9225,-0.9216,-0.9212,-0.9212,-0.9199,-0.9202,-0.9202,-0.9201,-0.9196,-0.9195,-0.9195,-0.9204,-0.9204,-0.9205,0,0,-0.9285,-0.928,-0.9274,-0.9269,-0.9262,-0.9258,-0.9257,-0.9249,-0.9246,-0.9238,-0.9235,-0.9229,-0.9217,-0.9212,-0.9207,-0.92,-0.9198,-0.9198,-0.9196,-0.9191,-0.919,-0.9189,-0.9186,-0.9186,-0.9197,-0.9197,-0.9197,0,-0.9284,-0.9275,-0.9271,-0.9264,-0.926,-0.9258,-0.9251,-0.9246,-0.9237,-0.9234,-0.9235,-0.922,-0.9214,-0.9204,-0.9202,-0.9199,-0.9197,-0.9199,-0.919,-0.919,-0.9189,-0.9186,-0.9185,-0.9197,-0.9197,-0.9197,-0.9197,0,-0.9274,-0.9267,-0.9263,-0.9255,-0.925,-0.9244,-0.9239,-0.9234,-0.9232,-0.9228,-0.9219,-0.9213,-0.9205,-0.9202,-0.92,-0.9191,-0.9192,-0.9192,-0.9193,-0.9188,-0.9186,-0.9185,-0.9197,-0.9197,-0.9197,-0.9197,0,0,-0.9268,-0.9258,-0.9257,-0.9253,-0.9245,-0.924,-0.9233,-0.9226,-0.9222,-0.9216,-0.921,-0.92,-0.92,-0.9195,-0.9192,-0.9188,-0.9182,-0.9188,-0.9187,-0.9187,-0.9172,-0.9173,-0.9172,-0.9181,-0.9181,-0.9181,-0.9173,0,-0.9261,-0.925,-0.9246,-0.9236,-0.923,-0.9228,-0.9222,-0.9217,-0.9213,-0.9207,-0.9203,-0.9196,-0.9196,-0.9193,-0.9189,-0.9184,-0.9179,-0.9184,-0.9175,-0.9175,-0.9177,-0.917,-0.917,-0.9164,-0.9172,-0.9172,-0.9172,0,-0.9252,-0.9246,-0.9236,-0.9229,-0.9226,-0.9221,-0.9214,-0.9208,-0.9202,-0.9199,-0.9194,-0.9192,-0.9184,-0.9186,-0.9176,-0.9179,-0.9175,-0.9172,-0.9172,-0.9171,-0.9173,-0.9169,-0.9161,-0.916,-0.917,-0.917,-0.917,0,-0.9249,-0.9238,-0.9231,-0.9227,-0.9219,-0.9216,-0.9212,-0.9206,-0.9201,-0.9195,-0.9192,-0.9185,-0.9181,-0.9175,-0.9171,-0.9172,-0.9161,-0.9162,-0.9158,-0.9158,-0.9156,-0.9156,-0.9148,-0.9153,-0.9154,-0.9154,-0.9154,0,-0.9241,-0.9235,-0.9229,-0.9225,-0.9217,-0.9214,-0.9207,-0.9203,-0.9197,-0.9192,-0.9189,-0.9184,-0.9178,-0.9172,-0.9168,-0.916,-0.9158,-0.9156,-0.9155,-0.9156,-0.9157,-0.9153,-0.9154,-0.9153,-0.9153,-0.9153,-0.9153,0,-0.9237,-0.9232,-0.9224,-0.9217,-0.9215,-0.921,-0.9204,-0.9199,-0.9196,-0.9189,-0.9187,-0.9181,-0.9173,-0.9168,-0.9159,-0.9156,-0.9148,-0.9147,-0.915,-0.915,-0.9146,-0.9146,-0.9135,-0.9134,-0.9141,-0.9141,-0.9141,0,-0.9232,-0.9227,-0.922,-0.9216,-0.9213,-0.9206,-0.9202,-0.9198,-0.9194,-0.9186,-0.9182,-0.9175,-0.9169,-0.9157,-0.9152,-0.9145,-0.9144,-0.914,-0.9142,-0.9144,-0.9143,-0.9144,-0.9143,-0.914,-0.914,-0.914,-0.914,0,-0.9225,-0.9223,-0.9217,-0.9211,-0.9206,-0.92,-0.9195,-0.9192,-0.9187,-0.9182,-0.9175,-0.917,-0.9161,-0.9154,-0.9146,-0.9142,-0.914,-0.9139,-0.9138,-0.9139,-0.9141,-0.914,-0.9149,-0.9139,-0.9139,-0.9139,-0.9139,-0.9139,-0.922,-0.9215,-0.921,-0.9203,-0.9199,-0.9194,-0.9189,-0.9185,-0.9179,-0.9172,-0.9169,-0.9162,-0.9156,-0.9145,-0.9141,-0.9135,-0.9135,-0.9133,-0.9133,-0.9132,-0.9132,-0.9142,-0.9133,-0.9133,-0.9133,-0.9133,-0.9133,0,-0.9212,-0.9208,-0.9202,-0.9195,-0.919,-0.9189,-0.9183,-0.9179,-0.9173,-0.9167,-0.9161,-0.9153,-0.9146,-0.914,-0.9133,-0.9129,-0.9128,-0.9127,-0.9128,-0.9127,-0.9132,-0.9134,-0.9128,-0.9128,-0.9128,-0.9128,-0.9128,-0.9128,-0.9207,-0.92,-0.9198,-0.9188,-0.9184,-0.9177,-0.9174,-0.9169,-0.9165,-0.9156,-0.915,-0.9147,-0.9141,-0.9133,-0.9127,-0.9125,-0.9123,-0.9122,-0.912,-0.9126,-0.9126,-0.9127,-0.9128,-0.9121,-0.9121,-0.9115,-0.9115,-0.9115]},{"header":{"parameterUnit":"m.s-1","parameterCategory":1,"la1":30.2991,"la2":30.254,"lo1":-89.0895,"lo2":-89.0444,"dy":0.0017,"dx":0.0017,"nx":28,"ny":28,"refTime":"2024-04-29T21:00:00:Z","depth":0,"parameterNumber":3,"parameterNumberName":"V-component_of_WINDS"},"data":[0,0,0,0,0,0,0,0,0,0,0,0,0,0,0,0,0,0,0,0,0,0,0,0,0,0,0,0,0,0,0,0,0,0,0,0,0,0,0,0,0,0,0,0,0,0,0,0,0,0,0,0,0,0,0,0,0,0,2.2506,2.2507,0,2.2552,2.2553,2.2553,2.2551,2.255,2.2549,2.2549,2.2595,2.2597,2.2599,0,0,0,0,0,0,0,0,0,0,0,0,0,2.2418,2.2419,2.2506,2.2507,2.2507,2.2552,2.2553,2.2553,2.2551,2.255,2.2549,2.2548,2.2595,2.2597,2.2599,0,0,0,0,0,0,0,0,0,0,0,0,0,2.2459,2.242,2.2506,2.2512,2.2513,2.2552,2.2553,2.2553,2.2551,2.255,2.2549,2.2548,2.2594,2.2597,2.2599,2.2636,0,0,2.2608,2.2609,0,0,0,0,0,0,0,0,2.2457,2.2462,2.251,2.2511,2.2512,2.2545,2.2538,2.2581,2.2551,2.2536,2.2549,2.2547,2.2579,2.2583,2.2594,2.2638,2.264,2.2608,2.261,2.2611,2.2612,0,0,0,0,0,0,0,2.2454,2.246,2.2524,2.2511,2.2512,2.2512,2.2517,2.2546,2.2563,2.2538,2.2537,2.2543,2.258,2.2591,2.2595,2.2641,2.2608,2.261,2.2612,2.2613,2.272,2.2721,0,0,0,0,0,0,2.245,2.2458,2.2523,2.2526,2.2482,2.2514,2.252,2.2535,2.2562,2.2566,2.2544,2.2543,2.2587,2.2592,2.2596,2.2643,2.2611,2.2613,2.2615,2.2719,2.272,2.2721,0,0,0,0,0,0,2.2448,2.2456,2.2521,2.2492,2.25,2.2517,2.2534,2.2537,2.2548,2.2567,2.257,2.2552,2.2586,2.2593,2.2627,2.2644,2.2615,2.2617,2.2717,2.2719,2.2721,2.2734,0,0,0,0,0,0,2.2445,2.2455,2.2469,2.2492,2.2502,2.255,2.2535,2.2538,2.2553,2.2552,2.2576,2.2579,2.2586,2.2623,2.2629,2.2647,2.2619,2.2716,2.2718,2.272,2.2732,2.2736,2.2739,0,0,0,0,0,2.2442,2.247,2.2469,2.2477,2.2519,2.2551,2.2557,2.2564,2.2554,2.2569,2.2581,2.2578,2.2641,2.2626,2.2634,2.2653,2.2715,2.2717,2.272,2.2731,2.2735,2.2739,0,0,0,0,0,0,2.2448,2.2473,2.2473,2.2509,2.2528,2.2551,2.2569,2.2569,2.2591,2.2589,2.2597,2.2603,2.2637,2.2648,2.2631,2.2691,2.2677,2.2681,2.2682,2.2687,2.269,2.2687,2.2622,0,0,0,0,0,2.2454,2.2477,2.2498,2.2529,2.2538,2.2552,2.2566,2.257,2.259,2.2598,2.2613,2.2632,2.2657,2.2672,2.2695,2.2734,2.274,2.2751,2.2754,2.2757,2.2761,2.2784,2.2789,2.273,2.273,2.273,0,0,2.2465,2.2482,2.2497,2.253,2.2545,2.257,2.2559,2.2585,2.2604,2.2602,2.2635,2.2647,2.2669,2.2706,2.2723,2.2717,2.2779,2.2761,2.2763,2.2765,2.2787,2.2793,2.2798,2.2732,2.2731,2.2731,0,0,2.25,2.2514,2.2542,2.2557,2.2581,2.259,2.2597,2.262,2.2628,2.2661,2.2661,2.2683,2.2725,2.2741,2.2755,2.2797,2.2795,2.2804,2.2823,2.2845,2.285,2.2854,2.287,2.2876,2.2808,2.2808,2.2808,0,2.2511,2.2548,2.2556,2.2583,2.2598,2.2598,2.2627,2.2642,2.2671,2.2682,2.2674,2.2727,2.2742,2.2783,2.2794,2.2805,2.2813,2.2801,2.2848,2.2853,2.2857,2.2872,2.2878,2.2809,2.2809,2.2808,2.2808,0,2.2562,2.2588,2.2607,2.2637,2.2654,2.2681,2.2694,2.271,2.2714,2.2724,2.2759,2.2777,2.2805,2.2815,2.2818,2.2857,2.2853,2.2847,2.2833,2.2863,2.2878,2.2884,2.281,2.281,2.2809,2.2809,0,0,2.2601,2.2635,2.2642,2.2656,2.2682,2.2702,2.273,2.2757,2.2772,2.2793,2.2817,2.2853,2.2848,2.2864,2.2868,2.2888,2.2921,2.288,2.288,2.2887,2.2967,2.2972,2.2979,2.2921,2.2922,2.2923,2.2966,0,2.2638,2.2688,2.2696,2.274,2.2764,2.2766,2.279,2.2809,2.282,2.2843,2.2854,2.288,2.2871,2.2881,2.29,2.2913,2.2938,2.291,2.2944,2.2945,2.2939,2.2986,2.2991,2.3031,2.2971,2.2972,2.2973,0,2.2688,2.2711,2.2757,2.2782,2.2792,2.2814,2.2841,2.2862,2.2884,2.2891,2.2909,2.2912,2.2942,2.2927,2.2969,2.295,2.2964,2.2973,2.2975,2.2979,2.2961,2.2992,2.3044,2.305,2.2982,2.2981,2.2981,0,2.2713,2.2755,2.2789,2.28,2.2829,2.2845,2.2858,2.2879,2.2895,2.2918,2.2929,2.2956,2.297,2.2991,2.3001,2.2989,2.3043,2.3028,2.305,2.305,2.3061,2.3061,2.3117,2.307,2.3069,2.3069,2.3069,0,2.2754,2.2783,2.28,2.2821,2.2853,2.2863,2.2895,2.2907,2.2926,2.295,2.2952,2.2975,2.2987,2.3011,2.3019,2.3054,2.306,2.3067,2.3069,2.3067,2.3066,2.3077,2.3074,2.3071,2.3071,2.307,2.307,0,2.2787,2.28,2.2837,2.2862,2.2869,2.2891,2.2913,2.2933,2.2944,2.2974,2.2982,2.2999,2.3028,2.3041,2.3076,2.3082,2.3121,2.3121,2.3114,2.3114,2.3136,2.3134,2.3201,2.3211,2.3157,2.3157,2.3158,0,2.2813,2.2835,2.2863,2.2879,2.2892,2.2918,2.2935,2.2946,2.2963,2.2991,2.3009,2.3037,2.3061,2.3107,2.3123,2.3151,2.3152,2.3173,2.3156,2.3154,2.3153,2.3152,2.3155,2.3177,2.3177,2.3178,2.3178,0,2.2858,2.2864,2.2888,2.2915,2.2935,2.2957,2.2978,2.2991,2.3006,2.3026,2.3055,2.3074,2.311,2.3139,2.3168,2.3182,2.3183,2.3183,2.319,2.3189,2.3184,2.3188,2.3123,2.3182,2.3181,2.3181,2.3181,2.3181,2.2889,2.2909,2.2932,2.2959,2.2977,2.2997,2.3018,2.3032,2.3057,2.3087,2.3092,2.3124,2.3147,2.3186,2.3201,2.3227,2.3221,2.3231,2.3233,2.3236,2.3237,2.318,2.3232,2.3232,2.3232,2.3232,2.3232,0,2.2935,2.295,2.2975,2.3005,2.3027,2.3026,2.305,2.3068,2.3096,2.3118,2.3141,2.3176,2.3205,2.3224,2.3253,2.327,2.3271,2.3277,2.3276,2.328,2.324,2.3232,2.3276,2.3276,2.3276,2.3276,2.3276,2.3276,2.2961,2.2996,2.3004,2.3048,2.3063,2.3094,2.3108,2.3127,2.3144,2.3183,2.3207,2.3219,2.324,2.3271,2.3298,2.3302,2.3313,2.332,2.3325,2.3287,2.3283,2.3278,2.3271,2.3322,2.3322,2.3363,2.3363,2.3363]}]]